Location: Chmeli�t?
(49.8978°N, 15.0526°E)
Time: 12:24:50
(UTC+00:00)

Cosmos 2263 Rocket - Pass Details

Date: 07 June 2020
Orbit: 825 x 847 km, 71.0° (Epoch: 14 July)

Event Time Altitude Azimuth Distance (km) Brightness Sun altitude
Rises 01:03:08 0° 326° (NNW) 3,391 5.7 -12.3°
Reaches altitude 10° 01:05:40 10° 320° (NW) 2,449 4.9 -12.1°
Maximum altitude 01:10:56 43° 251° (WSW) 1,152 2.6 -11.6°
Enters shadow 01:16:08 10° 181° (S) 2,421 4.1 -11.2°
